Buenos Aires, Argentina

5:07 AM America on May 28, 2018 (GMT +0000)
Jorge Newbery Aeroparque

Weather History for SABE - April, 1998

Change the Weather History Date:

Sunday, April 12, 1998

  Actual Average Record
Temperature  
Mean Temperature 65 °F -  
Max Temperature 66 °F 69 °F 78 °F (2004)
Min Temperature 64 °F 56 °F 48 °F (2003)
Growing Degree Days 15 (Base 50)    
Moisture  
Dew Point 64 °F    
Average Humidity 95    
Maximum Humidity 100    
Minimum Humidity 88    
Precipitation  
Precipitation 0.00 in 0.11 in - ()
Sea Level Pressure  
Sea Level Pressure 29.94 in    
Wind  
Wind Speed 15 mph ()    
Max Wind Speed 28 mph    
Max Gust Speed -    
Visibility 3.4 miles    
Events Rain    
Averages and records for this station are not official NWS values.
T = Trace of Precipitation, MM = Missing Value Source: Averaged Metar Reports

Daily Weather History Graph

Daily Weather History Graph

Search for Another Location

Airport or City:

Astronomy

Apr. 12, 1998 Rise Set
Actual Time 7:14 AM -03 6:33 PM -03
Civil Twilight 6:49 AM -03 6:59 PM -03
Nautical Twilight 6:19 AM -03 7:28 PM -03
Astronomical Twilight 5:50 AM -03 7:57 PM -03
Moon 7:17 PM -03 (4/12) 7:40 AM -03 (4/12)
Length of Visible Light 12h 10m
Length of Day
11h 19m
Full, 100% of the Moon is Illuminated
Apr 12
Full
Apr 19
Last Quarter
Apr 26
New
May 3
First Quarter
May 11
Full

Hourly Weather History & Observations

Time (-03) Temp. Dew Point Humidity Pressure Visibility Wind Dir Wind Speed Gust Speed Precip Events Conditions
12:00 AM 66.2 °F 62.6 °F 88% 29.92 in 6.2 mi SE 11.5 mph - N/A   Overcast
1:00 AM 66.2 °F 62.6 °F 88% 29.92 in 6.2 mi SE 13.8 mph - N/A   Overcast
2:00 AM 66.2 °F 62.6 °F 88% 29.92 in 6.2 mi SE 12.7 mph - N/A   Overcast
3:00 AM 66.2 °F 62.6 °F 88% 29.92 in 6.2 mi SE 11.5 mph - N/A   Overcast
4:00 AM 66.2 °F 62.6 °F 88% 29.92 in 6.2 mi SE 13.8 mph - N/A   Overcast
5:00 AM 64.4 °F 64.4 °F 100% 29.92 in 3.1 mi SE 17.3 mph - N/A   Light Drizzle
6:00 AM 64.4 °F 62.6 °F 94% 29.92 in 1.6 mi SE 17.3 mph - N/A   Light Drizzle
7:00 AM 64.4 °F 64.4 °F 100% 29.92 in 2.2 mi ESE 20.7 mph - N/A   Drizzle
8:00 AM 64.4 °F 64.4 °F 100% 29.95 in 0.9 mi ESE 17.3 mph - N/A   Heavy Drizzle
9:00 AM 64.4 °F 64.4 °F 100% 29.95 in 1.2 mi SE 17.3 mph - N/A   Heavy Drizzle
9:20 AM 64.4 °F 64.4 °F 100% 29.98 in 3.7 mi ESE 17.3 mph - N/A   Light Drizzle
10:00 AM 66.2 °F 64.4 °F 94% 29.95 in 3.1 mi ESE 17.3 mph - N/A   Light Drizzle
11:00 AM 66.2 °F 64.4 °F 94% 29.95 in 3.7 mi ESE 24.2 mph - N/A   Light Drizzle
12:00 PM 66.2 °F 64.4 °F 94% 29.98 in - North - - N/A   Overcast
1:00 PM 66.2 °F 64.4 °F 94% 29.98 in 6.2 mi ESE 20.7 mph - N/A   Light Drizzle
2:00 PM 66.2 °F 64.4 °F 94% 29.95 in 6.2 mi ESE 20.7 mph - N/A   Overcast
3:00 PM 66.2 °F 64.4 °F 94% 29.92 in 3.7 mi ESE 17.3 mph - N/A   Light Drizzle
4:00 PM 66.2 °F 64.4 °F 94% 29.92 in 3.7 mi ESE 23.0 mph - N/A   Light Drizzle
5:00 PM 66.2 °F 64.4 °F 94% 29.92 in 3.7 mi ESE 27.6 mph - N/A   Light Drizzle
5:15 PM 66.2 °F 64.4 °F 94% 29.92 in 3.7 mi ESE 27.6 mph - N/A   Light Drizzle
6:00 PM 66.2 °F 64.4 °F 94% 29.92 in 0.5 mi ESE 17.3 mph - N/A   Heavy Drizzle
6:20 PM 66.2 °F 64.4 °F 94% 29.92 in 1.2 mi SE 20.7 mph - N/A Rain Rain
8:00 PM 66.2 °F 64.4 °F 94% 29.92 in 0.9 mi ESE 23.0 mph - N/A Rain Rain
9:00 PM 66.2 °F 64.4 °F 94% 29.92 in 0.9 mi SE 11.5 mph - N/A Rain Rain
10:00 PM 66.2 °F 66.2 °F 100% 29.95 in 1.6 mi ESE 16.1 mph - N/A   Overcast
10:25 PM 66.2 °F 66.2 °F 100% 29.95 in 1.9 mi ESE 18.4 mph - N/A   Light Drizzle
11:00 PM 66.2 °F 66.2 °F 100% 29.95 in 2.5 mi East 13.8 mph - N/A   Light Drizzle